This demonstration page uses our WeatherBlox Daily Observations layout. Learn more.

Left ArrowRight Arrow

Hourly Observations for December 24, 2017

Temp ( °F °C ) Dew Point ( °F °C ) Humidity (%) Winds ( mph kmh ) Pressure ( in mb ) Visibility ( mi km ) Precip ( " mm )
12:53 am 00:53 Clear 49 9.4 17 -8.3 28 28 WSW 12 19 30.00 1016 10 16 0.00 0.00
1:53 am 01:53 Clear 48 8.9 16 -8.9 28 28 W 9 15 30.01 1016 10 16 0.00 0.00
2:53 am 02:53 Clear 45 7.2 16 -8.9 31 31 WNW 6 9 30.04 1017 10 16 0.00 0.00
3:53 am 03:53 Clear 41 5 17 -8.3 38 38 SW 3 6 30.04 1017 10 16 0.00 0.00
4:53 am 04:53 Clear 44 6.7 17 -8.3 34 34 WSW 5 7 30.04 1017 10 16 0.00 0.00
5:53 am 05:53 Clear 36 2.2 19 -7.2 50 50 SE 3 6 30.08 1019 10 16 0.00 0.00
6:53 am 06:53 Clear 34 1.1 20 -6.7 56 56 VRB 3 6 30.12 1020 10 16 0.00 0.00
7:53 am 07:53 Sunny 36 2.2 20 -6.7 52 52 N 5 7 30.15 1021 10 16 0.00 0.00
8:53 am 08:53 Sunny 38 3.3 21 -6.1 51 51 N 7 11 30.18 1022 10 16 0.00 0.00
9:53 am 09:53 Sunny 54 12.2 17 -8.3 23 23 NE 17 28 30.19 1023 10 16 0.00 0.00
10:53 am 10:53 Sunny 49 9.4 19 -7.2 31 31 NE 20 31 30.26 1025 9 14 0.00 0.00
11:53 am 11:53 Sunny 46 7.8 20 -6.7 35 35 NE 18 30 30.28 1025 10 16 0.00 0.00
12:53 pm 12:53 Sunny 46 7.8 21 -6.1 37 37 NE 20 31 30.27 1025 10 16 0.00 0.00
1:53 pm 13:53 Sunny 48 8.9 22 -5.6 36 36 NE 16 26 30.24 1024 10 16 0.00 0.00
2:53 pm 14:53 Sunny 49 9.4 22 -5.6 35 35 ENE 15 24 30.25 1024 10 16 0.00 0.00
3:53 pm 15:53 Sunny 48 8.9 22 -5.6 36 36 E 16 26 30.28 1025 10 16 0.00 0.00
4:53 pm 16:53 Sunny 46 7.8 22 -5.6 38 38 E 9 15 30.29 1026 10 16 0.00 0.00
5:53 pm 17:53 Sunny 42 5.6 22 -5.6 45 45 E 10 17 30.34 1027 10 16 0.00 0.00
6:53 pm 18:53 Clear 38 3.3 21 -6.1 51 51 E 8 13 30.36 1028 10 16 0.00 0.00
7:53 pm 19:53 Clear 34 1.1 21 -6.1 59 59 ENE 7 11 30.38 1029 10 16 0.00 0.00
8:53 pm 20:53 Clear 32 0 20 -6.7 61 61 ENE 7 11 30.39 1029 10 16 0.00 0.00
9:53 pm 21:53 Clear 31 -0.6 20 -6.7 64 64 ENE 5 7 30.35 1028 10 16 0.00 0.00
10:53 pm 22:53 Clear 28 -2.2 19 -7.2 69 69 NNE 7 11 30.37 1029 10 16 0.00 0.00
11:53 pm 23:53 Clear 28 -2.2 19 -7.2 69 69 Calm 30.37 1029 10 16 0.00 0.00

Powered by AerisWeather